Home   Weather   Idaho Falls   Past weeks
Flag for USA

Past Weather in Idaho Falls, Idaho, USA — Yesterday and Last 2 Weeks

Now
1 °F

Sunny.


Feels Like: -7 °F
Forecast: 17 / -10 °F
Wind: 3 mph from Southwest

Location: Fanning Field

Current Time: Feb 22, 2019 at 9:46:07 am

Latest Report: Feb 22, 2019 at 8:53 am


Visibility: 10 mi

Pressure: 30.22 "Hg (24.97 "Hg at 1429m altitude)

Humidity: 92%

Dew Point: -1 °F

Location of Idaho FallsLocation

Past Weather in Idaho Falls — Graph

°F

Idaho Falls Temperature Yesterday

Maximum temperature yesterday: 23 °F (at 1:53 pm)
Minimum temperature yesterday: -1 °F (at 6:53 am)
Average temperature yesterday: 11 °F

High & Low Weather Summary for the Past Weeks

 TemperatureHumidityPressure
High40 °F (Feb 15, 11:53 am)96% (Feb 14, 1:53 am)30.61 "Hg (Feb 14, 1:53 am)
Low-7 °F (Feb 22, 2:53 am)51% (Feb 15, 11:53 am)29.44 "Hg (Feb 14, 10:30 pm)
Average20 °F80%29.93 "Hg
* Reported Feb 7 7:53 am — Feb 22 7:53 am, Idaho Falls. Weather by CustomWeather, © 2019

Note: Actual official high and low records may vary slightly from our data, if they occured in-between our weather recording intervals... More about our weather records

Advertising

Idaho Falls Weather History for the Previous 24 Hours

Scroll right to see more
 ConditionsComfort  
Time TempWeatherWind HumidityBarometerVisibility
7:53 am
Fri, Feb 22
-1 °FClear.6 mph86%30.20 "Hg10 mi
6:53 am-2 °FClear.5 mph78%30.18 "Hg10 mi
5:53 am-5 °FClear.6 mphN/A30.15 "Hg10 mi
4:53 am-6 °FClear.No wind78%30.13 "Hg10 mi
3:53 am-4 °FClear.3 mph83%30.10 "Hg10 mi
2:53 am-7 °FClear.7 mphN/A30.10 "Hg10 mi
1:53 am1 °FClear.6 mph79%30.07 "Hg10 mi
12:53 am-2 °FClear.3 mph83%30.08 "Hg10 mi
11:53 pm
Thu, Feb 21
4 °FClear.8 mph73%30.06 "Hg10 mi
10:53 pm5 °FClear.12 mph72%30.07 "Hg10 mi
9:53 pm7 °FClear.8 mph70%30.07 "Hg10 mi
8:53 pm9 °FClear.12 mph70%30.07 "Hg10 mi
7:53 pm10 °FClear.12 mph69%30.06 "Hg10 mi
6:53 pm13 °FSunny.13 mph67%30.05 "Hg10 mi
5:53 pm16 °FSunny.13 mph65%30.01 "Hg10 mi
4:53 pm20 °FSunny.10 mph62%29.97 "Hg10 mi
3:53 pm22 °FSunny.12 mph62%29.96 "Hg10 mi
2:53 pm23 °FSunny.14 mph60%29.94 "Hg10 mi
1:53 pm23 °FScattered clouds.12 mph55%29.93 "Hg10 mi
12:53 pm21 °FScattered clouds.12 mph55%29.93 "Hg10 mi
11:53 am17 °FSunny.12 mph59%29.97 "Hg10 mi
9:53 am10 °FScattered clouds.12 mph67%29.99 "Hg10 mi
Weather by CustomWeather, © 2019

See weather overview